[[{"header":{"parameterUnit":"m.s-1","parameterCategory":1,"la1":30.2991,"la2":30.254,"lo1":-89.0895,"lo2":-89.0444,"dy":0.0017,"dx":0.0017,"nx":28,"ny":28,"refTime":"2023-10-01T21:00:00:Z","depth":0,"parameterNumber":2,"parameterNumberName":"U-component_of_WINDS"},"data":[0,0,0,0,0,0,0,0,0,0,0,0,0,0,0,0,0,0,0,0,0,0,0,0,0,0,0,0,0,0,0,0,0,0,0,0,0,0,0,0,0,0,0,0,0,0,0,0,0,0,0,0,0,0,0,0,0,0,-6.2907,-6.2907,0,-6.2941,-6.2941,-6.2941,-6.2838,-6.2834,-6.2831,-6.2828,-6.2863,-6.2866,-6.287,0,0,0,0,0,0,0,0,0,0,0,0,0,-6.2754,-6.2757,-6.2907,-6.2907,-6.2908,-6.2941,-6.2941,-6.2941,-6.2838,-6.2834,-6.283,-6.2827,-6.2861,-6.2866,-6.2871,0,0,0,0,0,0,0,0,0,0,0,0,0,-6.2807,-6.2758,-6.2907,-6.286,-6.2856,-6.294,-6.2941,-6.2942,-6.2839,-6.2834,-6.2829,-6.2825,-6.286,-6.2866,-6.2871,-6.3002,0,0,-6.2889,-6.2891,0,0,0,0,0,0,0,0,-6.2804,-6.2813,-6.2867,-6.2864,-6.2859,-6.288,-6.2899,-6.2962,-6.284,-6.2846,-6.2828,-6.2823,-6.2872,-6.2877,-6.2893,-6.3004,-6.3005,-6.2889,-6.2893,-6.2895,-6.2897,0,0,0,0,0,0,0,-6.2801,-6.2811,-6.292,-6.2868,-6.2863,-6.2838,-6.284,-6.2911,-6.2885,-6.2845,-6.2837,-6.2843,-6.2869,-6.2888,-6.2894,-6.3006,-6.2889,-6.2894,-6.2898,-6.29,-6.3226,-6.3231,0,0,0,0,0,0,-6.2803,-6.2808,-6.2919,-6.2921,-6.282,-6.2844,-6.2847,-6.2878,-6.2884,-6.288,-6.2847,-6.2838,-6.2881,-6.2887,-6.2894,-6.3049,-6.2895,-6.2901,-6.2904,-6.3221,-6.3227,-6.3233,0,0,0,0,0,0,-6.28,-6.2814,-6.2918,-6.2863,-6.2874,-6.2852,-6.2888,-6.2881,-6.29,-6.2886,-6.288,-6.2871,-6.2877,-6.2886,-6.2976,-6.3049,-6.2903,-6.2909,-6.3215,-6.3223,-6.323,-6.3359,0,0,0,0,0,0,-6.2796,-6.2813,-6.2863,-6.2865,-6.2877,-6.2999,-6.2892,-6.2885,-6.291,-6.2899,-6.2907,-6.2903,-6.2874,-6.2968,-6.2982,-6.3054,-6.2913,-6.3208,-6.3219,-6.3228,-6.3348,-6.337,-6.3389,0,0,0,0,0,-6.2791,-6.2897,-6.2866,-6.288,-6.2939,-6.3004,-6.3011,-6.2975,-6.2916,-6.2966,-6.2957,-6.2903,-6.3038,-6.2978,-6.2993,-6.3068,-6.3204,-6.3216,-6.3227,-6.3339,-6.3365,-6.3388,0,0,0,0,0,0,-6.2904,-6.2897,-6.2862,-6.2972,-6.2989,-6.2986,-6.3047,-6.3004,-6.3039,-6.3027,-6.2981,-6.2983,-6.3082,-6.3084,-6.3017,-6.3195,-6.3111,-6.3126,-6.3191,-6.3216,-6.3236,-6.3234,-6.2918,0,0,0,0,0,-6.2942,-6.2995,-6.2986,-6.3084,-6.3094,-6.307,-6.3097,-6.3068,-6.3084,-6.3091,-6.3088,-6.3106,-6.3153,-6.3184,-6.3226,-6.3347,-6.3348,-6.3406,-6.3426,-6.3443,-6.3457,-6.3523,-6.3549,-6.3271,-6.3271,-6.3271,0,0,-6.302,-6.3023,-6.3059,-6.3107,-6.3117,-6.3173,-6.3077,-6.314,-6.3182,-6.31,-6.3186,-6.3185,-6.3202,-6.3309,-6.3355,-6.3313,-6.3534,-6.3458,-6.3472,-6.3476,-6.3537,-6.3564,-6.3587,-6.3279,-6.3278,-6.3276,0,0,-6.3192,-6.3199,-6.3282,-6.3295,-6.3311,-6.3294,-6.3315,-6.3319,-6.3315,-6.34,-6.334,-6.3389,-6.347,-6.3485,-6.3503,-6.3683,-6.3635,-6.3698,-6.3805,-6.3869,-6.3891,-6.391,-6.3975,-6.3999,-6.3711,-6.3712,-6.3712,0,-6.3287,-6.337,-6.333,-6.3399,-6.3422,-6.3351,-6.3435,-6.3449,-6.3479,-6.3496,-6.3448,-6.3549,-6.3555,-6.3665,-6.3709,-6.3726,-6.3748,-6.3697,-6.3891,-6.391,-6.3927,-6.3989,-6.4013,-6.3719,-6.3719,-6.3718,-6.3717,0,-6.3487,-6.3546,-6.3611,-6.3642,-6.3672,-6.3749,-6.372,-6.3756,-6.3725,-6.3713,-6.3801,-6.3806,-6.3849,-6.3873,-6.3842,-6.3979,-6.3952,-6.3899,-6.3813,-6.3962,-6.4019,-6.4042,-6.373,-6.3728,-6.3725,-6.3723,0,0,-6.3731,-6.374,-6.3764,-6.3778,-6.3792,-6.3837,-6.391,-6.3952,-6.3984,-6.4007,-6.4068,-6.4139,-6.4089,-6.411,-6.4081,-6.4138,-6.4281,-6.4077,-6.4077,-6.4116,-6.4434,-6.4475,-6.4503,-6.425,-6.4254,-6.4257,-6.4432,0,-6.3901,-6.4026,-6.3993,-6.4118,-6.4173,-6.4107,-6.417,-6.4186,-6.4178,-6.4223,-6.4213,-6.4265,-6.4195,-6.4208,-6.426,-6.4253,-6.4345,-6.4239,-6.4306,-6.4309,-6.4305,-6.4532,-6.4575,-6.474,-6.4454,-6.4458,-6.4461,0,-6.4116,-6.4149,-6.428,-6.4286,-6.4307,-6.4366,-6.4402,-6.4446,-6.4463,-6.4452,-6.4477,-6.4437,-6.451,-6.4424,-6.4524,-6.4453,-6.4479,-6.4479,-6.4485,-6.449,-6.4395,-6.4545,-6.4792,-6.4817,-6.4495,-6.4493,-6.449,0,-6.4282,-6.4358,-6.4447,-6.4461,-6.447,-6.4513,-6.4519,-6.4531,-6.4559,-6.459,-6.4608,-6.4648,-6.467,-6.4702,-6.4675,-6.4614,-6.478,-6.4691,-6.4774,-6.4776,-6.4813,-6.4811,-6.5069,-6.4828,-6.4828,-6.4827,-6.4827,0,-6.4476,-6.4559,-6.4522,-6.4577,-6.4668,-6.4629,-6.4721,-6.4719,-6.4731,-6.4784,-6.4729,-6.4781,-6.474,-6.4789,-6.4767,-6.4855,-6.4865,-6.4859,-6.4853,-6.4865,-6.4866,-6.4881,-6.4869,-6.4834,-6.4832,-6.4831,-6.483,0,-6.4677,-6.4655,-6.4748,-6.4749,-6.4752,-6.4819,-6.4821,-6.4872,-6.4859,-6.4928,-6.4942,-6.4923,-6.4977,-6.4952,-6.5009,-6.4994,-6.5107,-6.5085,-6.5102,-6.5096,-6.5181,-6.5174,-6.5459,-6.5494,-6.523,-6.5233,-6.5235,0,-6.4803,-6.4865,-6.4874,-6.4906,-6.4916,-6.4968,-6.4996,-6.496,-6.4992,-6.5017,-6.5066,-6.5115,-6.5152,-6.5242,-6.5234,-6.5277,-6.5256,-6.5353,-6.5262,-6.5273,-6.5259,-6.5256,-6.5262,-6.5371,-6.5374,-6.5377,-6.5379,0,-6.5029,-6.5015,-6.5058,-6.5098,-6.5133,-6.5163,-6.5188,-6.5217,-6.5182,-6.5221,-6.5276,-6.5305,-6.5363,-6.5414,-6.5452,-6.5458,-6.5414,-6.5408,-6.5429,-6.5442,-6.545,-6.5448,-6.5152,-6.5401,-6.5399,-6.5397,-6.5396,-6.5395,-6.5196,-6.5249,-6.5264,-6.5314,-6.5329,-6.5354,-6.5402,-6.5396,-6.5441,-6.5486,-6.5462,-6.5527,-6.5543,-6.559,-6.5603,-6.5653,-6.5615,-6.5646,-6.5654,-6.5663,-6.5674,-6.5442,-6.566,-6.5659,-6.5658,-6.5658,-6.5657,0,-6.542,-6.5426,-6.5473,-6.551,-6.555,-6.5504,-6.5529,-6.5566,-6.5623,-6.5642,-6.5681,-6.5744,-6.5793,-6.5789,-6.5834,-6.5875,-6.5856,-6.5888,-6.5885,-6.5888,-6.5705,-6.5682,-6.5903,-6.5903,-6.5903,-6.5903,-6.5903,-6.5903,-6.5541,-6.5629,-6.5617,-6.5712,-6.5718,-6.5781,-6.5799,-6.5822,-6.5837,-6.5911,-6.5951,-6.5948,-6.5959,-6.6004,-6.6047,-6.6045,-6.6064,-6.6105,-6.6095,-6.5925,-6.59,-6.5877,-6.5855,-6.6109,-6.6109,-6.6273,-6.6275,-6.6276]},{"header":{"parameterUnit":"m.s-1","parameterCategory":1,"la1":30.2991,"la2":30.254,"lo1":-89.0895,"lo2":-89.0444,"dy":0.0017,"dx":0.0017,"nx":28,"ny":28,"refTime":"2023-10-01T21:00:00:Z","depth":0,"parameterNumber":3,"parameterNumberName":"V-component_of_WINDS"},"data":[0,0,0,0,0,0,0,0,0,0,0,0,0,0,0,0,0,0,0,0,0,0,0,0,0,0,0,0,0,0,0,0,0,0,0,0,0,0,0,0,0,0,0,0,0,0,0,0,0,0,0,0,0,0,0,0,0,0,-1.7287,-1.7287,0,-1.7263,-1.7263,-1.7263,-1.7213,-1.7212,-1.7211,-1.721,-1.7187,-1.7187,-1.7188,0,0,0,0,0,0,0,0,0,0,0,0,0,-1.7288,-1.7288,-1.7287,-1.7287,-1.7286,-1.7264,-1.7263,-1.7263,-1.7213,-1.7212,-1.7211,-1.721,-1.7187,-1.7187,-1.7188,0,0,0,0,0,0,0,0,0,0,0,0,0,-1.7279,-1.7288,-1.7287,-1.7259,-1.7256,-1.7264,-1.7263,-1.7263,-1.7214,-1.7212,-1.7211,-1.7209,-1.7187,-1.7187,-1.7188,-1.7221,0,0,-1.7189,-1.719,0,0,0,0,0,0,0,0,-1.7279,-1.7279,-1.7263,-1.7261,-1.7258,-1.724,-1.7255,-1.7249,-1.7214,-1.723,-1.721,-1.7208,-1.7206,-1.7205,-1.7204,-1.722,-1.7219,-1.7189,-1.719,-1.719,-1.719,0,0,0,0,0,0,0,-1.728,-1.7279,-1.7278,-1.7263,-1.726,-1.7247,-1.7244,-1.7254,-1.7227,-1.7228,-1.7225,-1.7222,-1.7204,-1.7203,-1.7203,-1.7219,-1.7189,-1.719,-1.719,-1.719,-1.726,-1.7261,0,0,0,0,0,0,-1.7285,-1.728,-1.7278,-1.7277,-1.7265,-1.7248,-1.7245,-1.7247,-1.7226,-1.7222,-1.7224,-1.722,-1.7203,-1.7202,-1.7202,-1.7239,-1.719,-1.719,-1.7191,-1.7258,-1.726,-1.7262,0,0,0,0,0,0,-1.7285,-1.7285,-1.7279,-1.7278,-1.7276,-1.725,-1.7253,-1.7247,-1.7246,-1.7223,-1.7218,-1.7228,-1.7202,-1.7201,-1.7216,-1.7237,-1.7191,-1.7191,-1.7257,-1.7259,-1.7261,-1.7313,0,0,0,0,0,0,-1.7285,-1.7285,-1.7298,-1.7278,-1.7276,-1.7295,-1.7254,-1.7248,-1.7247,-1.7243,-1.7226,-1.7221,-1.7201,-1.7216,-1.7217,-1.7237,-1.7191,-1.7255,-1.7258,-1.726,-1.731,-1.7317,-1.7324,0,0,0,0,0,-1.7285,-1.7314,-1.7299,-1.7299,-1.7291,-1.7296,-1.7295,-1.727,-1.7249,-1.7262,-1.7246,-1.7222,-1.7235,-1.7218,-1.7219,-1.7239,-1.7253,-1.7257,-1.726,-1.7307,-1.7316,-1.7323,0,0,0,0,0,0,-1.7338,-1.7311,-1.7294,-1.7317,-1.7309,-1.7288,-1.7302,-1.7281,-1.7279,-1.7275,-1.7244,-1.7241,-1.726,-1.7251,-1.7233,-1.727,-1.724,-1.7244,-1.7275,-1.7283,-1.729,-1.7292,-1.7192,0,0,0,0,0,-1.7352,-1.7358,-1.7334,-1.7357,-1.7354,-1.7329,-1.733,-1.7311,-1.7302,-1.7299,-1.7284,-1.7276,-1.7278,-1.728,-1.7281,-1.7308,-1.7303,-1.7322,-1.7329,-1.7335,-1.7339,-1.7351,-1.7359,-1.7273,-1.7273,-1.7273,0,0,-1.7382,-1.7368,-1.7373,-1.7367,-1.7359,-1.7365,-1.7326,-1.7335,-1.734,-1.73,-1.7313,-1.7302,-1.7291,-1.7312,-1.7321,-1.7305,-1.7361,-1.734,-1.7344,-1.7345,-1.7356,-1.7364,-1.7371,-1.7276,-1.7275,-1.7275,0,0,-1.7439,-1.7429,-1.7446,-1.7438,-1.7426,-1.7409,-1.7413,-1.7394,-1.7385,-1.7398,-1.7368,-1.7373,-1.7377,-1.737,-1.7367,-1.742,-1.7397,-1.7421,-1.7457,-1.747,-1.7477,-1.7483,-1.7501,-1.7508,-1.7425,-1.7425,-1.7425,0,-1.7477,-1.7486,-1.7458,-1.7468,-1.7466,-1.743,-1.7447,-1.744,-1.7429,-1.7428,-1.7411,-1.7414,-1.7405,-1.7423,-1.7436,-1.7435,-1.7438,-1.7423,-1.7478,-1.7484,-1.7489,-1.7506,-1.7513,-1.7428,-1.7427,-1.7427,-1.7427,0,-1.7533,-1.754,-1.7555,-1.7544,-1.7544,-1.7557,-1.7531,-1.7534,-1.7515,-1.75,-1.7513,-1.7499,-1.7496,-1.7499,-1.7481,-1.7515,-1.7505,-1.7484,-1.7453,-1.75,-1.7516,-1.7522,-1.7432,-1.7431,-1.743,-1.7429,0,0,-1.7624,-1.7596,-1.7603,-1.7597,-1.7579,-1.7584,-1.7595,-1.7591,-1.7594,-1.7587,-1.7596,-1.7599,-1.7578,-1.7575,-1.7556,-1.7567,-1.7609,-1.7544,-1.7543,-1.7556,-1.7644,-1.766,-1.7669,-1.7593,-1.7595,-1.7595,-1.7645,0,-1.7677,-1.7696,-1.767,-1.7694,-1.7699,-1.7663,-1.7673,-1.7664,-1.7649,-1.7651,-1.7635,-1.7638,-1.7611,-1.7609,-1.7618,-1.7602,-1.7626,-1.7598,-1.7601,-1.7602,-1.7605,-1.7677,-1.7694,-1.7742,-1.7651,-1.7652,-1.7652,0,-1.7742,-1.7737,-1.7761,-1.7741,-1.7742,-1.7752,-1.7745,-1.7748,-1.7736,-1.7724,-1.772,-1.7697,-1.7706,-1.7676,-1.7689,-1.767,-1.767,-1.7662,-1.7663,-1.7663,-1.763,-1.7678,-1.7756,-1.7763,-1.7662,-1.7661,-1.766,0,-1.7805,-1.7805,-1.7819,-1.7815,-1.7792,-1.7799,-1.779,-1.7776,-1.7775,-1.7769,-1.7768,-1.7764,-1.7762,-1.7759,-1.7735,-1.7716,-1.7751,-1.7719,-1.7741,-1.7742,-1.7751,-1.775,-1.783,-1.7751,-1.775,-1.775,-1.775,0,-1.7868,-1.7884,-1.7847,-1.7855,-1.7872,-1.7842,-1.7859,-1.7847,-1.7834,-1.784,-1.7809,-1.7815,-1.7782,-1.7785,-1.7766,-1.7779,-1.7778,-1.7769,-1.7764,-1.7772,-1.7773,-1.7771,-1.7767,-1.7752,-1.7752,-1.7751,-1.7751,0,-1.7941,-1.7917,-1.793,-1.7907,-1.7901,-1.7914,-1.7894,-1.7901,-1.7884,-1.7891,-1.7891,-1.7865,-1.7865,-1.7841,-1.7837,-1.7824,-1.7845,-1.7834,-1.7849,-1.7846,-1.7869,-1.7867,-1.795,-1.7959,-1.7875,-1.7876,-1.7876,0,-1.7983,-1.7994,-1.7971,-1.7972,-1.7964,-1.7967,-1.7965,-1.7936,-1.7935,-1.7921,-1.793,-1.7928,-1.7924,-1.7927,-1.7908,-1.7904,-1.7893,-1.7922,-1.7892,-1.7899,-1.7893,-1.7892,-1.7893,-1.7928,-1.7929,-1.793,-1.7931,0,-1.8058,-1.8045,-1.8044,-1.8038,-1.8037,-1.8031,-1.8023,-1.8025,-1.7993,-1.7994,-1.7994,-1.7992,-1.7987,-1.7985,-1.7978,-1.7968,-1.7944,-1.794,-1.7945,-1.7954,-1.7962,-1.7957,-1.7866,-1.7939,-1.7938,-1.7937,-1.7937,-1.7937,-1.8117,-1.8125,-1.8109,-1.8108,-1.8099,-1.8092,-1.8097,-1.808,-1.8079,-1.8073,-1.8056,-1.8058,-1.8044,-1.8032,-1.8024,-1.8026,-1.8011,-1.8018,-1.802,-1.8022,-1.8027,-1.7961,-1.8024,-1.8024,-1.8024,-1.8023,-1.8023,0,-1.819,-1.8178,-1.8178,-1.8167,-1.8166,-1.8143,-1.8133,-1.8133,-1.8136,-1.8125,-1.8122,-1.8121,-1.8119,-1.8099,-1.8094,-1.8099,-1.8088,-1.8099,-1.8098,-1.8096,-1.804,-1.8036,-1.8108,-1.8108,-1.8108,-1.8108,-1.8108,-1.8108,-1.8228,-1.824,-1.8225,-1.8232,-1.822,-1.8221,-1.8217,-1.8211,-1.8201,-1.8202,-1.82,-1.8186,-1.8171,-1.8165,-1.8162,-1.8156,-1.8155,-1.817,-1.816,-1.8108,-1.81,-1.8092,-1.8089,-1.817,-1.817,-1.8216,-1.8216,-1.8217]}]]